COSMOS 1275 DEB, 14558

Orbit data source: Space-Track

COSMOS 1275 DEB, 14558 is space debris in LEO originally from a launch on Thu, 04 Jun 1981 UTC launched from the Plesetsk Missile And Space Complex (PKMTR). Debris objects in space refer to the collection of defunct objects orbiting the Earth. Examples of debris include non-operational satellites, rocket bodies, and fragments generated from explosions, collisions, or faulty payload assembly.

Loading next visibility...
Identifier
14558, 1981-053JN
Orbit
LEO
Country
Flag of CISCIS
Related business
Manufacturer
Unknown
Mission
Spacecraft
Bus & Motor
Unknown
Mass
Unknown
Launch date (UTC)
1981-06-04 (45 years ago)
Launch vehicle
Unknown
Launch site
Plesetsk Missile And Space Complex (PKMTR)
Object type
Payload
Rocket body
Debris
Shape & HBR
Unknown shape, 0.1 m
Radar Cross Section
Small (<0.1 m²)

Expand to show TLE details & history
Last TLE update: 16 hours ago

TLE from 16 hours ago
0 COSMOS 1275 DEB
1 14558U 81053JN  26036.96907198  .00007579  00000-0  24617-2 0  9996
2 14558  82.9199 116.3494 0014300 240.0258 179.4333 14.38704452274753
Epoch: 2026-02-05T23:15Z
TLE epoch observation values (Epoch: 2026-02-05T23:15:27.819Z)
Latitude
58.82553°
Longitude
3.15244°
Altitude
782.968 km
Speed
7.463 km/s
True Right ascension
08h 32m 31s
True Declination
58° 40' 25"
Sunlit
Object was in full shadow at epoch
Visualization orbit readout
Latitude
Unknown
Longitude
Unknown
Altitude
Unknown
Speed
Unknown
Apparent Right ascension
Unknown
Apparent Declination
Unknown
Sunlit
N/A
Visualization observer readout
Local Sidereal Time
17:22:23
Azimuth
Unknown
Elevation
Unknown
Doppler factor
Unknown
Orbital elements
Apogee altitude
770.052 km
Perigee altitude
749.637 km
Semi-major axis
7,137.981 km
Eccentricity
0.00143
Inclination
82.9199°
RAAN
116.3494°
Arg. of periapsis
240.0258°
True anomaly
179.43492°
Mean anomaly
179.4333°
Eccentric anomaly
179.43411°
Mean motion
3.59899 °/min
Orbital period
100.03 mins
BSTAR
0.0024617
Loading maneuver chart data...
Computing Atmospheric mass density...
Loading historical data...
Loading historical data...
Loading historical data...
Loading historical data...
Loading historical data...
Loading historical data...
Loading historical data...

Documentation

Showing up to 5 results
|